Location: Newark
(43.6583°N, 1.6617°E)
Time: 15:53:51
(UTC+00:00)

Courier 1B - Pass Details

Date: 27 August 2019
Orbit: 962 x 1209 km, 28.3° (Epoch: 18 October)

Event Time Altitude Azimuth Distance (km) Brightness Sun altitude
Rises 14:42:29 0° 213° (SSW) 3,963 11.4 40.6°
Reaches altitude 10° 14:46:59 10° 189° (S) 2,948 10.6 39.9°
Maximum altitude 14:50:17 14° 161° (SSE) 2,641 10.0 39.3°
Drops below altitude 10° 14:53:31 10° 133° (SE) 2,864 9.9 38.8°
Sets 14:57:45 0° 109° (ESE) 3,764 10.2 38.1°
